Simultaneous Nadir Overpasses (SNOs) Predictions

Prediction of SNOs between GOES-15 and METOP-C Satellite Orbit:

Table of predicted SNOs for the next 14.0 days since TLE Epoch: 2/26/2022
Index Date Time (GOES-15) GOES-15 Lat,Lon METOP-C Lat,Lon Distance(km) Time Diff (sec)
1 02/26/2022 18:05:47 0.01,-127.63 0.31,-128.86 141.32 80
2 02/27/2022 17:47:48 0.01,-127.59 -0.83,-123.88 423.20 80
3 03/01/2022 06:04:08 -0.01,-127.48 -0.23,-128.47 112.84 80
4 03/02/2022 05:46:09 -0.02,-127.44 0.85,-123.47 451.80 80
5 03/03/2022 18:02:22 0.02,-127.42 0.13,-128.04 70.11 80
6 03/04/2022 17:44:23 0.02,-127.38 -0.95,-123.04 494.50 80
7 03/06/2022 06:00:43 -0.02,-127.27 -0.09,-127.63 41.62 80
8 03/08/2022 18:01:37 0.01,-127.20 -0.00,-127.21 1.74 80
9 03/11/2022 05:59:58 -0.01,-127.03 0.05,-126.80 26.70 80
